#timestamp,LO_Frequency,Hit,StdDev 
1547640015.5,286046998.2,N
1547640035.4,286046998.9,N
1547640055.2,286046999.0,N
1547640075.0,286046998.2,N
1547640075.9,286046998.2,N
1547640095.8,286047001.1,N
1547640115.6,286046998.3,N
1547640135.5,286046998.2,N
1547640155.3,286047001.2,N
1547640175.1,286047001.0,N
1547640195.9,286046999.3,N
1547640215.7,286046998.3,N
1547640235.5,286046998.4,N
1547640255.4,286046998.2,N
1547640275.2,286046996.9,N
1547640295.0,286046997.1,N
1547640296.0,286046997.1,N
1547640315.8,286046996.5,N
1547640335.6,286046998.5,N
1547640355.5,286046998.1,N
1547640375.3,286046998.2,N
1547640395.1,286046998.6,N
1547640415.9,286046998.9,N
1547640435.7,286046999.0,N
1547640455.6,286046998.8,N
1547640475.4,286046998.6,N
1547640495.2,286046998.8,N
1547640515.1,286046998.3,N
1547640516.0,286046998.3,N
1547640535.8,286047000.5,N
1547640555.7,286046998.6,N
1547640575.5,286047000.5,N
1547640595.3,286047000.8,N
1547640615.2,286047001.0,N
1547640635.0,286046998.8,N
1547640635.9,286046998.8,N
1547640655.7,286046999.3,N
1547640675.6,286047000.6,N
1547640695.4,286046996.5,N
1547640715.3,286046998.9,N
1547640735.1,286046996.8,N
1547640736.0,286046996.8,N
1547640755.8,286046996.7,N
1547640775.7,286046997.5,N
1547640795.5,286046996.7,N
1547640815.3,286046999.3,N
1547640835.2,286046998.2,N
1547640855.0,286046999.0,N
1547640855.9,286046999.0,N
1547640875.8,286046999.4,N
1547640895.6,286046998.9,N
1547640915.4,286046999.6,N
1547640935.3,286046998.9,N
1547640955.1,286046998.9,N
1547640975.8,286047000.7,N
1547640995.7,286047002.5,N
1547641015.5,286047001.6,N
1547641035.4,286047002.8,N
1547641055.2,286047000.2,N
1547641075.0,286047000.0,N
1547641075.9,286047011.9,Y
1547641095.8,286047003.1,P
1547641115.6,286047005.4,N
1547641135.5,286047005.1,N
1547641155.3,286047005.0,N
1547641175.1,286047005.6,N
1547641195.9,286047005.5,N
1547641215.7,286047003.3,N
1547641235.5,286047003.0,N
1547641255.4,286047002.2,N
1547641275.2,286047004.3,N
1547641295.0,286047003.6,N
1547641296.0,286047003.6,N
1547641315.8,286047003.2,N
1547641335.6,286047003.7,N
1547641355.5,286047003.2,N
1547641375.3,286047001.3,N
1547641395.1,286047001.8,N
1547641415.9,286047001.2,N
1547641435.7,286047001.1,N
1547641455.5,286046996.9,N
1547641475.4,286046999.2,N
1547641495.2,286046998.3,N
1547641515.1,286046998.2,N
1547641516.0,286046998.2,N
1547641535.8,286047000.7,N
1547641555.6,286047001.1,N
1547641575.5,286047001.2,N
1547641595.3,286047000.8,N
1547641615.1,286046998.5,N
1547641635.9,286046999.0,N
1547641655.7,286046997.0,N
1547641675.6,286046997.3,N
1547641695.4,286046997.6,N
1547641715.2,286046997.3,N
1547641735.1,286046999.1,N
1547641736.0,286046999.1,N
1547641755.8,286046999.2,N
1547641775.7,286046996.6,N
1547641795.5,286046999.3,N
1547641815.3,286046999.0,N
1547641835.2,286046997.3,N
1547641855.9,286046995.2,N
1547641875.7,286046995.9,N
1547641895.6,286046993.7,Y
1547641915.4,286046996.2,P
1547641935.3,286046996.2,N
1547641955.1,286046996.0,N
1547641956.0,286046996.0,Y
1547641975.8,286046996.9,P
1547641995.7,286046995.0,P
1547642015.5,286046995.4,P
1547642035.3,286046997.4,Y
1547642055.2,286047000.4,P
1547642075.0,286046998.7,N
1547642075.9,286046998.7,N
1547642095.8,286046998.5,N
1547642115.6,286047000.0,N
1547642135.4,286047000.8,N
1547642155.3,286046998.1,N
1547642175.1,286046998.5,N
1547642195.9,286047000.9,N
1547642215.7,286046998.8,N
1547642235.5,286046999.1,N
1547642255.4,286046996.9,N
1547642275.2,286046997.8,N
1547642295.1,286046994.9,Y
1547642296.0,286046994.9,P
1547642315.8,286046997.3,N
1547642335.6,286046997.6,N
1547642355.5,286046996.9,N
1547642375.3,286046999.2,N
1547642395.2,286046998.3,N
1547642415.9,286046999.6,N
1547642435.7,286046996.5,N
1547642455.6,286046999.1,N
1547642475.4,286046998.6,N
1547642495.3,286047000.6,N
1547642515.1,286046996.5,N
1547642516.0,286046996.5,N
1547642535.8,286046998.6,N
1547642555.7,286046998.9,N
1547642575.5,286046997.3,N
1547642595.3,286046997.3,N
1547642615.2,286046997.1,N
1547642635.0,286046997.9,N
1547642635.9,286046997.9,N
1547642655.8,286046997.1,N
1547642675.6,286046997.9,N
1547642695.5,286046995.1,Y
1547642715.3,286046996.9,P
1547642735.1,286046998.6,P
1547642755.9,286046998.9,N
1547642775.7,286046996.6,Y
1547642795.5,286047000.7,P
1547642815.4,286046996.5,N
1547642835.2,286047000.9,N
1547642855.1,286046998.3,N
1547642856.0,286046998.3,N
1547642875.8,286046999.4,N
1547642895.6,286046998.5,N
1547642915.5,286046999.0,N
1547642935.3,286046998.6,N
1547642955.1,286046998.2,N
1547642975.9,286046998.7,N
1547642995.7,286046999.0,N
1547643015.6,286046995.4,Y
1547643035.4,286046997.1,P
1547643055.2,286046996.5,P
1547643075.1,286046999.4,N
1547643076.0,286046999.4,N
1547643095.8,286046999.1,N
1547643115.7,286046998.8,N
1547643135.5,286046998.5,N
1547643155.3,286046999.8,N
1547643175.2,286047002.6,N
1547643195.0,286047002.4,N
1547643195.9,286047002.4,N
1547643215.7,286047001.6,N
1547643235.6,286047001.6,N
1547643255.4,286047001.6,N
1547643275.3,286047001.5,N
1547643295.1,286047001.4,N
1547643296.0,286047001.4,N
1547643315.8,286047002.1,N
1547643335.7,286047000.9,N
1547643355.5,286047001.2,N
1547643375.4,286047000.8,N
1547643395.2,286047000.5,N
1547643415.0,286047000.8,N
1547643415.9,286047000.8,N
1547643435.8,286046998.1,N
1547643455.6,286047001.0,N
1547643475.4,286046998.1,N
1547643495.3,286047000.9,N
1547643515.1,286047000.6,N
1547643535.9,286046998.6,N
1547643555.7,286047001.1,N
1547643575.5,286046999.4,N
1547643595.4,286046998.3,N
